Regional Weather Roundup
Issued by NWS Newport/Morehead, NC

Current Version | Previous Version | Graphics & Text | Print | Product List | Glossary Off
Versions: 1 2 3 4 5 6 7 8 9 10 11 12 13 14 15 16 17 18 19 20 21 22 23 24 25 26 27 28 29 30 31 32 33 34 35 36 37 38 39 40 41 42 43 44 45 46 47 48 49 50

000
ASUS42 KMHX 281424
RWRMHX
WEATHER ROUNDUP FOR EASTERN NORTH CAROLINA
NATIONAL WEATHER SERVICE NEWPORT/MOREHEAD CITY NC
900 AM EST SAT FEB 28 2015

NOTE: "FAIR" INDICATES FEW OR NO CLOUDS BELOW 12,000 FEET
WITH NO SIGNIFICANT WEATHER AND/OR OBSTRUCTIONS TO VISIBILITY

NCZ015>017-031-032-045>047-102-103-281500-
NORTH COAST

CITY           SKY/WX    TMP DP  RH WIND       PRES   REMARKS
EDENTON        SUNNY     32  17  53 NE10      30.79R
ELIZABETH CITY SUNNY     30  17  58 N14       30.78R WCI  19
KITTY HAWK     SUNNY     33  23  66 N12G18    30.75S
MANTEO         SUNNY     34  23  64 N18G25    30.76S

$$

NCZ045>047-081-094-103-104-281500-
CENTRAL COAST

CITY           SKY/WX    TMP DP  RH WIND       PRES   REMARKS
FRISCO         CLOUDY    35  27  72 N15G28    30.70R
SWANQUARTER      N/A     32 N/A N/A NE13G24   30.71R

$$

NCZ095-097-098-100-101-281500-
SOUTHERN COAST

CITY           SKY/WX    TMP DP  RH WIND       PRES   REMARKS
BEAUFORT       PTSUNNY   34  25  69 N21G29    30.70R
CEDAR ISLAND     N/A     34 N/A N/A N20G25    30.74S
JACKSONVILLE   MOSUNNY   33  23  66 NE15      30.71R
PINEY ISLAND     N/A    N/A N/A N/A MISG      30.71R
WILMINGTON     PTSUNNY   33  26  75 NE16      30.69R


$$

NCZ011>013-027>030-043-044-078>080-089-090>093-098-281500-
COASTAL PLAIN

CITY           SKY/WX    TMP DP  RH WIND       PRES   REMARKS
AHOSKIE        MOSUNNY   27  10  49 N12G17    30.82R WCI  16
CLINTON        SUNNY     34  19  56 NE9       30.75R
ELIZABETHTOWN  MOSUNNY   33  22  62 N6        30.73R
GOLDSBORO      SUNNY     31  23  72 NE8G18    30.74R
GREENVILLE     MOSUNNY   32  19  59 NE14      30.77R
HAVELOCK       PTSUNNY   34  22  61 NE18      30.73R
KENANSVILLE    SUNNY     32  19  58 N10G17    30.75R
KINSTON        MOSUNNY   32  18  55 N14G21    30.77R
NEW BERN       MOSUNNY   31  21  66 NE13      30.74R
RICHLANDS      MOSUNNY   32  19  59 NE14G20   30.74R
ROCKY MOUNT    MOSUNNY   29  13  51 N20       30.80R WCI  16
WASHINGTON     SUNNY     31  16  52 NE12      30.78R
WHITEVILLE     MOSUNNY   34  23  64 NE10G17   30.70R

$$

AMZ130-135-150-152-154-156-158-170-250-252-270-ANZ085-086-088-633-658-670-281500-
MARINE OBSERVATIONS

STATION/POSITION TIME  TEMP    WIND        PRES    WAVE   SWELL
                       AIR SEA DIR/SP/G            HT/PER HT/PER
                 (UTC) (F)     (DEG/KT/KT) (MB)    (FT/S) (FT/S)
CHESAPEAKE LIGHT 1400   26      10/ 15/ 17 1043.3
64 E VA BEACH    1350   36 55   10/ 21/ 25 1040.3    7/11   3/11
DUCK             1300   30 34   10/ 18/ 25 1040.1
2 E DUCK         1311      34                N/A     6/ 6   2/11
10 NE DUCK       1322      36                N/A     7/ 6   2/11
OREGON INLET     1312   34 37   10/ 16/ 22 1040.6
HATTERAS CG      1300   35 39   10/ 25/ 30 1039.1
CAPE LOOKOUT     1400   35      20/ 17/ 22 1038.9
BEAUFORT LAB     1400   34 40   20/ 19/ 24 1038.5
27 SE WRIGHTSVLE NOT AVBL
5 SE WRIGHTSVLE  NOT AVBL
225 S CAPE HAT   1350   66 69   60/ 19/ 25 1031.7   10/ 8   3/10
41 SE CHARLESTON 1350   54 65   40/ 27/ 33 1033.3    9/ 7   2/10

$$


USA.gov is the U.S. government's official web portal to all federal, state and local government web resources and services.